Antigo, WI

1:51 AM CST on February 22, 2017 (GMT -0600)
Langlade County

Weather History for KAIG - October, 2011

Change the Weather History Date:

Saturday, October 8, 2011

  Actual Average Record
Temperature  
Mean Temperature 66 °F -  
Max Temperature 78 °F 58 °F 80 °F (2003)
Min Temperature 53 °F 39 °F 21 °F (1989)
Growing Degree Days 16 (Base 50)    
Moisture  
Dew Point 50 °F    
Average Humidity 58    
Maximum Humidity 82    
Minimum Humidity 32    
Precipitation  
Precipitation 0.00 in - - ()
Sea Level Pressure  
Sea Level Pressure 30.18 in    
Wind  
Wind Speed 10 mph (SSW)    
Max Wind Speed 23 mph    
Max Gust Speed 28 mph    
Visibility 10 miles    
Events      
Averages and records for this station are not official NWS values.
T = Trace of Precipitation, MM = Missing Value Source: NWS Daily Summary

Daily Weather History Graph

Daily Weather History Graph

Search for Another Location

Airport or City:

Trip Planner

Search our weather history database for the weather conditions in past years. The results will help you decide how hot, cold, wet, or windy it might be!

Date:

Astronomy

Oct. 08, 2011 Rise Set
Actual Time 7:02 AM CDT 6:24 PM CDT
Civil Twilight 6:33 AM CDT 6:53 PM CDT
Nautical Twilight 5:59 AM CDT 7:27 PM CDT
Astronomical Twilight 5:25 AM CDT 8:01 PM CDT
Moon 4:40 PM CDT (10/8) 3:42 AM CDT (10/8)
Length of Visible Light 12h 20m
Length of Day
11h 21m
Waxing Gibbous, 90% of the Moon is Illuminated
Oct 8
Waxing Gibbous
Oct 11
Full
Oct 19
Last Quarter
Oct 26
New
Nov 2
First Quarter

Hourly Weather History & Observations

Time (CDT) Temp. Dew Point Humidity Pressure Visibility Wind Dir Wind Speed Gust Speed Precip Events Conditions
12:15 AM 60.8 °F 50.0 °F 68% 30.12 in 10.0 mi South 8.1 mph - N/A   Clear
12:35 AM 62.6 °F 50.0 °F 63% 30.12 in 10.0 mi South 8.1 mph - N/A   Clear
12:55 AM 60.8 °F 50.0 °F 68% 30.12 in 10.0 mi South 6.9 mph - N/A   Clear
1:15 AM 60.8 °F 48.2 °F 63% 30.13 in 10.0 mi South 6.9 mph - N/A   Clear
1:35 AM 60.8 °F 48.2 °F 63% 30.13 in 10.0 mi South 8.1 mph - N/A   Clear
1:55 AM 60.8 °F 48.2 °F 63% 30.13 in 10.0 mi South 8.1 mph - N/A   Clear
2:15 AM 60.8 °F 48.2 °F 63% 30.14 in 10.0 mi South 8.1 mph - N/A   Clear
2:35 AM 59.0 °F 48.2 °F 67% 30.14 in 10.0 mi South 5.8 mph - N/A   Clear
2:55 AM 57.2 °F 48.2 °F 72% 30.14 in 10.0 mi South 5.8 mph - N/A   Clear
3:35 AM 57.2 °F 48.2 °F 72% 30.15 in 10.0 mi South 6.9 mph - N/A   Clear
3:55 AM 57.2 °F 48.2 °F 72% 30.16 in 10.0 mi South 8.1 mph - N/A   Clear
4:15 AM 57.2 °F 48.2 °F 72% 30.16 in 10.0 mi South 8.1 mph - N/A   Clear
4:35 AM 57.2 °F 48.2 °F 72% 30.16 in 10.0 mi South 8.1 mph - N/A   Clear
4:55 AM 57.2 °F 48.2 °F 72% 30.17 in 10.0 mi South 8.1 mph - N/A   Clear
5:15 AM 57.2 °F 48.2 °F 72% 30.16 in 10.0 mi South 11.5 mph - N/A   Clear
5:35 AM 59.0 °F 48.2 °F 67% 30.17 in 10.0 mi South 9.2 mph - N/A   Clear
5:55 AM 57.2 °F 48.2 °F 72% 30.17 in 10.0 mi South 9.2 mph - N/A   Clear
6:15 AM 55.4 °F 48.2 °F 77% 30.18 in 10.0 mi South 6.9 mph - N/A   Clear
6:55 AM 53.6 °F 48.2 °F 82% 30.18 in 10.0 mi South 6.9 mph - N/A   Clear
7:15 AM 53.6 °F 48.2 °F 82% 30.18 in 10.0 mi South 5.8 mph - N/A   Clear
7:35 AM 55.4 °F 50.0 °F 82% 30.19 in 10.0 mi South 6.9 mph - N/A   Clear
7:55 AM 55.4 °F 50.0 °F 82% 30.19 in 10.0 mi South 5.8 mph - N/A   Clear
8:15 AM 57.2 °F 51.8 °F 82% 30.19 in 10.0 mi South 9.2 mph - N/A   Clear
8:35 AM 59.0 °F 51.8 °F 77% 30.20 in 10.0 mi South 5.8 mph - N/A   Clear
8:55 AM 60.8 °F 51.8 °F 72% 30.20 in 10.0 mi South 10.4 mph - N/A   Clear
9:15 AM 62.6 °F 51.8 °F 68% 30.21 in 10.0 mi South 11.5 mph - N/A   Clear
9:35 AM 64.4 °F 51.8 °F 64% 30.21 in 10.0 mi SSW 10.4 mph 16.1 mph N/A   Clear
9:55 AM 66.2 °F 51.8 °F 60% 30.21 in 10.0 mi SSW 12.7 mph 19.6 mph N/A   Clear
10:15 AM 69.8 °F 51.8 °F 53% 30.21 in 10.0 mi SSW 12.7 mph 17.3 mph N/A   Clear
10:35 AM 69.8 °F 51.8 °F 53% 30.21 in 10.0 mi SW 11.5 mph 18.4 mph N/A   Clear
10:55 AM 71.6 °F 51.8 °F 50% 30.21 in 10.0 mi SW 13.8 mph 18.4 mph N/A   Clear
11:15 AM 73.4 °F 53.6 °F 50% 30.21 in 10.0 mi SSW 16.1 mph - N/A   Clear
11:35 AM 73.4 °F 51.8 °F 47% 30.20 in 10.0 mi SSW 9.2 mph 18.4 mph N/A   Clear
12:15 PM 75.2 °F 53.6 °F 47% 30.20 in 10.0 mi SW 17.3 mph 23.0 mph N/A   Clear
12:35 PM 75.2 °F 53.6 °F 47% 30.19 in 10.0 mi SW 16.1 mph 21.9 mph N/A   Clear
12:55 PM 77.0 °F 51.8 °F 41% 30.19 in 10.0 mi SSW 18.4 mph 21.9 mph N/A   Clear
1:15 PM 77.0 °F 51.8 °F 41% 30.19 in 10.0 mi SSW 23.0 mph - N/A   Clear
1:35 PM 77.0 °F 51.8 °F 41% 30.18 in 10.0 mi WSW 18.4 mph - N/A   Clear
1:55 PM 78.8 °F 51.8 °F 39% 30.18 in 10.0 mi SSW 18.4 mph 23.0 mph N/A   Clear
2:15 PM 78.8 °F 51.8 °F 39% 30.18 in 10.0 mi SSW 17.3 mph 21.9 mph N/A   Clear
2:35 PM 78.8 °F 50.0 °F 36% 30.18 in 10.0 mi SSW 15.0 mph - N/A   Clear
2:55 PM 78.8 °F 48.2 °F 34% 30.17 in 10.0 mi SSW 18.4 mph 25.3 mph N/A   Clear
3:15 PM 78.8 °F 48.2 °F 34% 30.17 in 10.0 mi SSW 17.3 mph 26.5 mph N/A   Clear
3:35 PM 78.8 °F 46.4 °F 32% 30.17 in 10.0 mi SSW 16.1 mph 27.6 mph N/A   Clear
3:55 PM 78.8 °F 50.0 °F 36% 30.17 in 10.0 mi SSW 17.3 mph - N/A   Clear
4:15 PM 77.0 °F 48.2 °F 36% 30.17 in 10.0 mi SSW 17.3 mph 21.9 mph N/A   Clear
4:35 PM 77.0 °F 46.4 °F 34% 30.17 in 10.0 mi SSW 16.1 mph 24.2 mph N/A   Clear
4:55 PM 75.2 °F 46.4 °F 36% 30.17 in 10.0 mi SSW 16.1 mph 25.3 mph N/A   Clear
5:15 PM 75.2 °F 48.2 °F 38% 30.17 in 10.0 mi SSW 15.0 mph 21.9 mph N/A   Clear
5:35 PM 75.2 °F 48.2 °F 38% 30.17 in 10.0 mi SSW 10.4 mph - N/A   Clear
5:55 PM 73.4 °F 50.0 °F 44% 30.17 in 10.0 mi South 9.2 mph - N/A   Clear
6:15 PM 71.6 °F 50.0 °F 46% 30.17 in 10.0 mi South 9.2 mph - N/A   Clear
6:35 PM 68.0 °F 50.0 °F 52% 30.17 in 10.0 mi South 6.9 mph - N/A   Clear
6:55 PM 66.2 °F 48.2 °F 52% 30.18 in 10.0 mi South 5.8 mph - N/A   Clear
7:15 PM 64.4 °F 50.0 °F 59% 30.19 in 10.0 mi South 6.9 mph - N/A   Clear
7:35 PM 62.6 °F 50.0 °F 63% 30.19 in 10.0 mi South 5.8 mph - N/A   Clear
7:55 PM 62.6 °F 50.0 °F 63% 30.18 in 10.0 mi South 6.9 mph - N/A   Clear
8:35 PM 64.4 °F 51.8 °F 64% 30.19 in 10.0 mi South 9.2 mph - N/A   Clear
9:15 PM 64.4 °F 51.8 °F 64% 30.20 in 10.0 mi South 8.1 mph - N/A   Clear
9:35 PM 64.4 °F 51.8 °F 64% 30.21 in 10.0 mi South 8.1 mph - N/A   Clear
9:55 PM 62.6 °F 50.0 °F 63% 30.22 in 10.0 mi SSW 9.2 mph - N/A   Clear
10:15 PM 62.6 °F 50.0 °F 63% 30.22 in 10.0 mi SSW 6.9 mph - N/A   Clear
10:35 PM 62.6 °F 50.0 °F 63% 30.22 in 10.0 mi SSW 8.1 mph - N/A   Clear
11:15 PM 60.8 °F 50.0 °F 68% 30.23 in 10.0 mi SSW 5.8 mph - N/A   Clear
11:35 PM 59.0 °F 50.0 °F 72% 30.23 in 10.0 mi South 5.8 mph - N/A   Clear
11:55 PM 57.2 °F 48.2 °F 72% 30.24 in 10.0 mi South 5.8 mph - N/A   Clear